Location: Nairn
(57.5833°N, 3.8667°W)
Time: 16:39:06
(UTC+00:00)

Cosmos 1503 Rocket - Pass Details

Date: 07 August 2020
Orbit: 753 x 790 km, 74.0° (Epoch: 23 September)

Event Time Altitude Azimuth Distance (km) Brightness Sun altitude
Exits shadow 00:56:43 25° 179° (S) 1,562 5.0 -15.7°
Maximum altitude 00:59:43 55° 111° (ESE) 948 4.4 -15.7°
Drops below altitude 10° 01:04:57 10° 35° (NE) 2,364 7.6 -15.5°
Sets 01:07:23 0° 31° (NNE) 3,294 8.7 -15.5°
